• In Uzbekistan
  • List of Countries
  • For 7 days
  • Water Temperature
  • Satellite Maps
  • Weather Map
  • Weather Widgets
  • user-avatar
    Login

    Hourly Weather Berat

    Today, 16 January, Wednesday

    Time Temperature Precipitation Wind Pressure Humidity
    00:00 0°C° 0 mm 1 mps 748 mmHg 47%
    01:00 +1°C° 0 mm 1 mps 748 mmHg 44%
    02:00 +1°C° 0 mm 1 mps 748 mmHg 42%
    03:00 +1°C° 0 mm 1 mps 748 mmHg 39%
    04:00 +1°C° 0 mm 1 mps 749 mmHg 37%
    05:00 +1°C° 0 mm 1 mps 749 mmHg 36%
    06:00 +1°C° 0 mm 1 mps 749 mmHg 35%
    07:00 +1°C° 0 mm 1 mps 749 mmHg 33%
    08:00 +3°C° 0 mm 1 mps 749 mmHg 34%
    09:00 +5°C° 0 mm 1 mps 749 mmHg 35%
    10:00 +6°C° 0 mm 1 mps 749 mmHg 36%
    11:00 +7°C° 0 mm 1 mps 749 mmHg 39%
    12:00 +7°C° 0 mm 2 mps 749 mmHg 43%
    13:00 +7°C° 0 mm 2 mps 749 mmHg 46%
    14:00 +8°C° 0 mm 1 mps 749 mmHg 51%
    15:00 +7°C° 0 mm 1 mps 749 mmHg 55%
    16:00 +6°C° 0 mm 1 mps 749 mmHg 60%
    17:00 +5°C° 0 mm 1 mps 749 mmHg 61%
    18:00 +4°C° 0 mm 1 mps 749 mmHg 62%
    19:00 +4°C° 0 mm 1 mps 749 mmHg 63%
    20:00 +4°C° 0 mm 1 mps 749 mmHg 62%
    21:00 +4°C° 0 mm 1 mps 749 mmHg 62%
    22:00 +4°C° 0 mm 1 mps 750 mmHg 61%
    23:00 +4°C° 0 mm 1 mps 749 mmHg 61%

    Tomorrow, 17 January, Thursday

    Time Temperature Precipitation Wind Pressure Humidity
    00:00 +4°C° 0 mm 1 mps 749 mmHg 60%
    01:00 +4°C° 0 mm 1 mps 749 mmHg 60%
    02:00 +4°C° 0 mm 1 mps 749 mmHg 59%
    03:00 +4°C° 0 mm 1 mps 749 mmHg 59%
    04:00 +4°C° 0 mm 1 mps 749 mmHg 59%
    05:00 +3°C° 0 mm 2 mps 749 mmHg 58%
    06:00 +3°C° 0 mm 2 mps 749 mmHg 58%
    07:00 +3°C° 0 mm 2 mps 749 mmHg 57%
    08:00 +5°C° 0 mm 2 mps 749 mmHg 54%
    09:00 +7°C° 0 mm 2 mps 749 mmHg 51%
    10:00 +10°C° 0 mm 1 mps 749 mmHg 48%
    11:00 +11°C° 0 mm 1 mps 748 mmHg 46%
    12:00 +12°C° 0 mm 1 mps 748 mmHg 44%
    13:00 +12°C° 0 mm 1 mps 748 mmHg 42%
    14:00 +12°C° 0 mm 1 mps 748 mmHg 48%
    15:00 +11°C° 0 mm 1 mps 747 mmHg 54%
    16:00 +9°C° 0 mm 0 mps 747 mmHg 59%
    17:00 +9°C° 0 mm 1 mps 747 mmHg 63%
    18:00 +6°C° 0 mm 2 mps 747 mmHg 66%
    19:00 +5°C° 0 mm 2 mps 748 mmHg 69%
    20:00 +4°C° 0 mm 3 mps 748 mmHg 72%
    21:00 +4°C° 0 mm 3 mps 747 mmHg 75%
    22:00 +4°C° 0 mm 3 mps 747 mmHg 77%
    23:00 +4°C° 0 mm 3 mps 747 mmHg 79%

    Day after tomorrow, 18 January, Friday

    Time Temperature Precipitation Wind Pressure Humidity
    00:00 +4°C° 0 mm 3 mps 747 mmHg 80%
    01:00 +4°C° 0 mm 3 mps 747 mmHg 81%
    02:00 +5°C° 0.1 mm 3 mps 747 mmHg 82%
    03:00 +5°C° 0.1 mm 3 mps 746 mmHg 83%
    04:00 +6°C° 0.1 mm 2 mps 746 mmHg 84%
    05:00 +6°C° 0.2 mm 2 mps 746 mmHg 84%
    06:00 +7°C° 0.2 mm 2 mps 746 mmHg 85%
    07:00 +7°C° 0.2 mm 2 mps 746 mmHg 86%
    08:00 +8°C° 0.1 mm 2 mps 746 mmHg 83%
    09:00 +9°C° 0.1 mm 2 mps 747 mmHg 81%
    10:00 +9°C° 0.1 mm 2 mps 747 mmHg 79%
    11:00 +10°C° 0 mm 2 mps 747 mmHg 76%
    12:00 +12°C° 0 mm 2 mps 746 mmHg 74%
    13:00 +13°C° 0 mm 2 mps 746 mmHg 72%
    14:00 +12°C° 0 mm 2 mps 746 mmHg 74%
    15:00 +12°C° 0 mm 2 mps 746 mmHg 76%
    16:00 +10°C° 0 mm 2 mps 746 mmHg 78%
    17:00 +9°C° 0 mm 2 mps 746 mmHg 80%
    18:00 +8°C° 0 mm 2 mps 747 mmHg 82%
    19:00 +7°C° 0 mm 3 mps 747 mmHg 83%
    20:00 +7°C° 0 mm 3 mps 747 mmHg 83%
    21:00 +7°C° 0 mm 3 mps 747 mmHg 83%
    22:00 +5°C° 0 mm 3 mps 748 mmHg 83%
    23:00 +5°C° 0 mm 3 mps 747 mmHg 84%

    19 January, Saturday

    Time Temperature Precipitation Wind Pressure Humidity
    00:00 +6°C° 0 mm 2 mps 747 mmHg 84%
    01:00 +6°C° 0 mm 2 mps 747 mmHg 85%
    02:00 +6°C° 0 mm 2 mps 747 mmHg 85%
    03:00 +6°C° 0 mm 2 mps 747 mmHg 85%
    04:00 +6°C° 0 mm 2 mps 747 mmHg 85%
    05:00 +6°C° 0 mm 2 mps 747 mmHg 86%
    06:00 +6°C° 0 mm 2 mps 747 mmHg 86%
    07:00 +6°C° 0 mm 2 mps 747 mmHg 86%
    08:00 +8°C° 0 mm 3 mps 747 mmHg 81%
    09:00 +9°C° 0 mm 3 mps 747 mmHg 76%
    10:00 +11°C° 0 mm 3 mps 747 mmHg 71%
    11:00 +12°C° 0 mm 3 mps 747 mmHg 69%
    12:00 +12°C° 0 mm 3 mps 746 mmHg 68%
    13:00 +13°C° 0 mm 3 mps 746 mmHg 66%
    14:00 +11°C° 0.5 mm 3 mps 746 mmHg 71%
    15:00 +10°C° 0.5 mm 3 mps 745 mmHg 76%
    16:00 +9°C° 0.5 mm 3 mps 745 mmHg 81%
    17:00 +9°C° 0.6 mm 3 mps 745 mmHg 82%
    18:00 +8°C° 0.6 mm 2 mps 746 mmHg 83%
    19:00 +8°C° 0.6 mm 2 mps 746 mmHg 84%
    20:00 +8°C° 0.5 mm 2 mps 746 mmHg 84%
    21:00 +8°C° 0.5 mm 2 mps 746 mmHg 84%
    22:00 +8°C° 0.5 mm 2 mps 746 mmHg 84%
    23:00 +8°C° 0.4 mm 2 mps 745 mmHg 83%

    20 January, Sunday

    Time Temperature Precipitation Wind Pressure Humidity
    00:00 +8°C° 0.4 mm 3 mps 745 mmHg 83%
    01:00 +8°C° 0.4 mm 3 mps 745 mmHg 82%
    02:00 +8°C° 0.5 mm 3 mps 745 mmHg 82%
    03:00 +7°C° 0.5 mm 3 mps 744 mmHg 82%
    04:00 +7°C° 0.5 mm 3 mps 744 mmHg 82%
    05:00 +7°C° 0.6 mm 3 mps 744 mmHg 83%
    06:00 +7°C° 0.6 mm 3 mps 744 mmHg 83%
    07:00 +7°C° 0.6 mm 3 mps 744 mmHg 84%
    08:00 +8°C° 0.6 mm 3 mps 744 mmHg 83%
    09:00 +9°C° 0.6 mm 3 mps 744 mmHg 82%
    10:00 +9°C° 0.6 mm 3 mps 744 mmHg 81%
    11:00 +9°C° 0.6 mm 3 mps 744 mmHg 80%
    12:00 +10°C° 0.6 mm 3 mps 744 mmHg 79%
    13:00 +10°C° 0.6 mm 3 mps 743 mmHg 78%
    14:00 +10°C° 0.1 mm 3 mps 743 mmHg 79%
    15:00 +10°C° 0.1 mm 2 mps 743 mmHg 80%
    16:00 +10°C° 0.1 mm 2 mps 743 mmHg 80%
    17:00 +9°C° 0 mm 2 mps 743 mmHg 82%
    18:00 +8°C° 0 mm 2 mps 744 mmHg 83%
    19:00 +7°C° 0 mm 2 mps 744 mmHg 84%
    20:00 +7°C° 0 mm 2 mps 744 mmHg 83%
    21:00 +7°C° 0 mm 2 mps 744 mmHg 82%
    22:00 +7°C° 0 mm 2 mps 744 mmHg 80%
    23:00 +7°C° 0 mm 2 mps 744 mmHg 80%

    21 January, Monday

    Time Temperature Precipitation Wind Pressure Humidity
    00:00 +6°C° 0 mm 2 mps 744 mmHg 79%
    01:00 +6°C° 0 mm 2 mps 744 mmHg 78%
    02:00 +6°C° 0 mm 2 mps 744 mmHg 79%
    03:00 +6°C° 0 mm 2 mps 744 mmHg 79%
    04:00 +6°C° 0 mm 2 mps 744 mmHg 79%
    05:00 +6°C° 0 mm 2 mps 744 mmHg 79%
    06:00 +6°C° 0 mm 2 mps 744 mmHg 80%
    07:00 +6°C° 0 mm 2 mps 744 mmHg 80%
    08:00 +7°C° 0 mm 2 mps 744 mmHg 76%
    09:00 +9°C° 0 mm 2 mps 745 mmHg 73%
    10:00 +12°C° 0 mm 2 mps 745 mmHg 69%
    11:00 +12°C° 0 mm 1 mps 745 mmHg 66%
    12:00 +13°C° 0 mm 1 mps 744 mmHg 64%
    13:00 +13°C° 0 mm 0 mps 744 mmHg 61%
    14:00 +12°C° 0.1 mm 0 mps 744 mmHg 65%
    15:00 +12°C° 0.1 mm 0 mps 744 mmHg 69%
    16:00 +11°C° 0.1 mm 0 mps 744 mmHg 73%
    17:00 +11°C° 0.1 mm 1 mps 744 mmHg 75%
    18:00 +10°C° 0.1 mm 1 mps 744 mmHg 78%
    19:00 +8°C° 0.1 mm 2 mps 745 mmHg 80%
    20:00 +8°C° 0 mm 2 mps 745 mmHg 80%
    21:00 +8°C° 0 mm 2 mps 745 mmHg 81%
    22:00 +7°C° 0 mm 2 mps 745 mmHg 81%
    23:00 +7°C° 0 mm 2 mps 745 mmHg 80%
    Show more